User: anonymous   Login
Location: Sherrills_Ford_Terrell
(35.6000°N, 80.9830°W)
Time: 06:07:26
(UTC-04:00)
Language:

CZ-4B R/B - Orbit

View from above orbital plane
View from above orbital plane
View from above satellite
View from above satellite

Ground track
Ground track

The orbit data is extracted from the following two-line orbital elements,

1 29093U 06015B   15184.36421817  .00003610  00000-0  10927-3 0  9998
2 29093 097.4950 271.5991 0077435 356.3648 064.8285 15.31927891507780
Epoch (UTC): 03 July 2015 08:44:28
Eccentricity: 0.0077435
inclination: 97.4950°
perigee height: 417 km
apogee height: 523 km
right ascension of ascending node: 271.5991°
argument of perigee: 356.3648°
revolutions per day: 15.31927891
mean anomaly at epoch: 64.8285°
orbit number at epoch: 50778

The dashed part of the orbit path shows where the satellite is in the earth's shadow,  

DLR